START_TIME,STEP,MOV.,A46,t_acc.,A13,t_acc.,M47,t_acc.,A17,t_acc.,A28,t_acc.,M38,t_acc.
1979-07-23 23:42:25.020 ,0,0,,0,0.,4.8,0.,4.8,,0,0.,4.8,14.,4.8
1979-07-23 23:42:29.820 ,0,0,,0,0.,4.8,0.,4.8,,0,0.,4.8,19.,4.8
1979-07-23 23:42:34.620 ,0,0,,0,4.,4.8,0.,4.8,,0,0.,4.8,10.,4.8
1979-07-23 23:42:39.420 ,0,0,,0,19.,4.8,0.,4.8,,0,0.,4.8,11.,4.8
1979-07-23 23:42:44.220 ,0,0,,0,24.,4.8,3.,4.8,,0,0.,4.8,9.,4.8
1979-07-23 23:42:49.020 ,0,0,,0,21.,4.8,4.,4.8,,0,0.,4.8,10.,4.8
1979-07-23 23:42:53.820 ,0,0,,0,17.,4.8,1.,4.8,,0,0.,4.8,6.,4.8
1979-07-23 23:42:58.620 ,0,0,,0,16.,4.8,2.,4.8,,0,0.,4.8,7.,4.8
1979-07-23 23:43:03.420 ,0,0,,0,0.,4.8,0.,4.8,,0,0.,4.8,7.,4.8
1979-07-23 23:43:08.220 ,0,0,,0,0.,4.8,0.,4.8,,0,0.,4.8,10.,4.8
1979-07-23 23:43:13.020 ,4,0,,0,0.,4.8,0.,4.8,,0,0.,4.8,13.,4.8
1979-07-23 23:43:17.820 ,4,0,,0,0.,4.8,0.,4.8,,0,0.,4.8,10.,4.8
1979-07-23 23:43:22.620 ,4,0,,0,2.,4.8,0.,4.8,,0,0.,4.8,7.,4.8
1979-07-23 23:43:27.420 ,4,0,,0,18.,4.8,1.,4.8,,0,0.,4.8,8.,4.8
1979-07-23 23:43:32.220 ,4,0,,0,20.,4.8,2.,4.8,,0,0.,4.8,4.,4.8
1979-07-23 23:43:37.020 ,4,0,,0,27.,4.8,2.,4.8,,0,0.,4.8,9.,4.8
1979-07-23 23:43:41.820 ,4,0,,0,18.,4.8,2.,4.8,,0,0.,4.8,8.,4.8
1979-07-23 23:43:46.620 ,4,0,,0,9.,4.8,1.,4.8,,0,0.,4.8,12.,4.8
1979-07-23 23:43:51.420 ,4,0,,0,0.,4.8,0.,4.8,,0,0.,4.8,8.,4.8
1979-07-23 23:43:56.220 ,4,0,,0,0.,4.8,0.,4.8,,0,0.,4.8,6.,4.8
1979-07-23 23:44:01.020 ,3,0,,0,0.,4.8,0.,4.8,,0,0.,4.8,4.,4.8
1979-07-23 23:44:05.820 ,3,0,,0,0.,4.8,0.,4.8,,0,0.,4.8,8.,4.8
1979-07-23 23:44:10.620 ,3,0,,0,9.,4.8,1.,4.8,,0,0.,4.8,15.,4.8
1979-07-23 23:44:15.420 ,3,0,,0,53.,4.8,8.,4.8,,0,0.,4.8,25.,4.8
1979-07-23 23:44:20.220 ,3,0,,0,45.,4.8,6.,4.8,,0,0.,4.8,24.,4.8
1979-07-23 23:44:25.020 ,3,0,,0,64.,4.8,6.,4.8,,0,0.,4.8,15.,4.8
1979-07-23 23:44:29.820 ,3,0,,0,49.,4.8,10.,4.8,,0,0.,4.8,14.,4.8
1979-07-23 23:44:34.620 ,3,0,,0,38.,4.8,3.,4.8,,0,0.,4.8,23.,4.8
1979-07-23 23:44:39.420 ,3,0,,0,0.,4.8,0.,4.8,,0,0.,4.8,11.,4.8
1979-07-23 23:44:44.220 ,3,0,,0,0.,4.8,0.,4.8,,0,0.,4.8,22.,4.8
1979-07-23 23:44:49.020 ,2,0,,0,0.,4.8,0.,4.8,,0,0.,4.8,15.,4.8
1979-07-23 23:44:53.820 ,2,0,,0,0.,4.8,0.,4.8,,0,0.,4.8,30.,4.8
1979-07-23 23:44:58.620 ,2,0,,0,16.,4.8,4.,4.8,,0,0.,4.8,42.,4.8
1979-07-23 23:45:03.420 ,2,0,,0,100.,4.8,11.,4.8,,0,1.,4.8,55.,4.8
1979-07-23 23:45:08.220 ,2,0,,0,102.,4.8,13.,4.8,,0,0.,4.8,48.,4.8
1979-07-23 23:45:13.020 ,2,0,,0,116.,4.8,17.,4.8,,0,0.,4.8,54.,4.8
1979-07-23 23:45:17.820 ,2,0,,0,92.,4.8,10.,4.8,,0,0.,4.8,59.,4.8
1979-07-23 23:45:22.620 ,2,0,,0,80.,4.8,12.,4.8,,0,0.,4.8,50.,4.8
1979-07-23 23:45:27.420 ,2,0,,0,0.,4.8,0.,4.8,,0,0.,4.8,49.,4.8
1979-07-23 23:45:32.220 ,2,0,,0,0.,4.8,0.,4.8,,0,0.,4.8,50.,4.8
1979-07-23 23:45:13.020 ,2,0,,0,116.,4.8,17.,4.8,,0,0.,4.8,54.,4.8
1979-07-23 23:45:17.820 ,2,0,,0,92.,4.8,10.,4.8,,0,0.,4.8,59.,4.8
1979-07-23 23:45:22.620 ,2,0,,0,80.,4.8,12.,4.8,,0,0.,4.8,50.,4.8
1979-07-23 23:45:27.420 ,2,0,,0,0.,4.8,0.,4.8,,0,0.,4.8,49.,4.8
1979-07-23 23:45:32.220 ,2,0,,0,0.,4.8,0.,4.8,,0,0.,4.8,50.,4.8
1979-07-23 23:45:37.020 ,1,0,,0,0.,4.8,0.,4.8,,0,0.,4.8,45.,4.8
1979-07-23 23:45:41.820 ,1,0,,0,0.,4.8,0.,4.8,,0,0.,4.8,66.,4.8
1979-07-23 23:45:46.620 ,1,0,,0,18.,4.8,3.,4.8,,0,0.,4.8,92.,4.8
1979-07-23 23:45:51.420 ,1,0,,0,128.,4.8,15.,4.8,,0,0.,4.8,86.,4.8
1979-07-23 23:45:56.220 ,1,0,,0,126.,4.8,18.,4.8,,0,0.,4.8,76.,4.8
1979-07-23 23:46:01.020 ,1,0,,0,116.,4.8,16.,4.8,,0,0.,4.8,84.,4.8
1979-07-23 23:46:05.820 ,1,0,,0,108.,4.8,14.,4.8,,0,0.,4.8,78.,4.8
1979-07-23 23:46:10.620 ,1,0,,0,112.,4.8,17.,4.8,,0,0.,4.8,72.,4.8
1979-07-23 23:46:15.420 ,1,0,,0,0.,4.8,0.,4.8,,0,0.,4.8,88.,4.8
1979-07-23 23:46:20.220 ,1,0,,0,0.,4.8,0.,4.8,,0,0.,4.8,80.,4.8
1979-07-23 23:46:25.020 ,0,0,,0,0.,4.8,0.,4.8,,0,0.,4.8,68.,4.8
1979-07-23 23:46:29.820 ,0,0,,0,0.,4.8,0.,4.8,,0,0.,4.8,55.,4.8
1979-07-23 23:46:34.620 ,0,0,,0,15.,4.8,4.,4.8,,0,0.,4.8,45.,4.8
1979-07-23 23:46:39.420 ,0,0,,0,94.,4.8,8.,4.8,,0,0.,4.8,56.,4.8
1979-07-23 23:46:44.220 ,0,0,,0,104.,4.8,17.,4.8,,0,0.,4.8,36.,4.8
1979-07-23 23:46:49.020 ,0,0,,0,82.,4.8,9.,4.8,,0,0.,4.8,44.,4.8
1979-07-23 23:46:53.820 ,0,0,,0,78.,4.8,7.,4.8,,0,0.,4.8,37.,4.8
1979-07-23 23:46:58.620 ,0,0,,0,88.,4.8,12.,4.8,,0,0.,4.8,51.,4.8
1979-07-23 23:47:03.420 ,0,0,,0,0.,4.8,0.,4.8,,0,0.,4.8,60.,4.8
1979-07-23 23:47:08.220 ,0,0,,0,0.,4.8,0.,4.8,,0,0.,4.8,49.,4.8
1979-07-23 23:47:13.020 ,0,0,,0,0.,4.8,0.,4.8,,0,0.,4.8,49.,4.8
1979-07-23 23:47:17.820 ,0,0,,0,0.,4.8,0.,4.8,,0,0.,4.8,56.,4.8
1979-07-23 23:47:22.620 ,0,0,,0,20.,4.8,3.,4.8,,0,0.,4.8,37.,4.8
1979-07-23 23:47:27.420 ,0,0,,0,88.,4.8,11.,4.8,,0,0.,4.8,54.,4.8
1979-07-23 23:47:32.220 ,0,0,,0,98.,4.8,12.,4.8,,0,0.,4.8,50.,4.8
1979-07-23 23:47:37.020 ,0,0,,0,84.,4.8,16.,4.8,,0,0.,4.8,45.,4.8
1979-07-23 23:47:41.820 ,0,0,,0,74.,4.8,9.,4.8,,0,0.,4.8,48.,4.8
1979-07-23 23:47:46.620 ,0,0,,0,68.,4.8,9.,4.8,,0,0.,4.8,56.,4.8
1979-07-23 23:47:51.420 ,0,0,,0,0.,4.8,0.,4.8,,0,0.,4.8,43.,4.8
1979-07-23 23:47:56.220 ,0,0,,0,0.,4.8,0.,4.8,,0,0.,4.8,48.,4.8
1979-07-23 23:48:01.020 ,1,0,,0,0.,4.8,0.,4.8,,0,0.,4.8,44.,4.8
1979-07-23 23:48:05.820 ,1,0,,0,0.,4.8,0.,4.8,,0,0.,4.8,48.,4.8
1979-07-23 23:48:10.620 ,1,0,,0,24.,4.8,3.,4.8,,0,0.,4.8,96.,4.8
1979-07-23 23:48:15.420 ,1,0,,0,124.,4.8,21.,4.8,,0,0.,4.8,72.,4.8
1979-07-23 23:48:20.220 ,1,0,,0,122.,4.8,20.,4.8,,0,0.,4.8,60.,4.8
1979-07-23 23:48:25.020 ,1,0,,0,124.,4.8,25.,4.8,,0,1.,4.8,88.,4.8
1979-07-23 23:48:29.820 ,1,0,,0,116.,4.8,22.,4.8,,0,0.,4.8,66.,4.8
1979-07-23 23:48:34.620 ,1,0,,0,102.,4.8,20.,4.8,,0,0.,4.8,68.,4.8
1979-07-23 23:48:39.420 ,1,0,,0,0.,4.8,0.,4.8,,0,0.,4.8,72.,4.8
1979-07-23 23:48:44.220 ,1,0,,0,0.,4.8,0.,4.8,,0,0.,4.8,82.,4.8
1979-07-23 23:48:49.020 ,2,0,,0,0.,4.8,0.,4.8,,0,0.,4.8,66.,4.8
1979-07-23 23:48:53.820 ,2,0,,0,0.,4.8,0.,4.8,,0,0.,4.8,70.,4.8
1979-07-23 23:48:58.620 ,2,0,,0,27.,4.8,6.,4.8,,0,0.,4.8,45.,4.8
1979-07-23 23:49:03.420 ,2,0,,0,106.,4.8,11.,4.8,,0,0.,4.8,37.,4.8
1979-07-23 23:49:08.220 ,2,0,,0,116.,4.8,22.,4.8,,0,0.,4.8,45.,4.8
1979-07-23 23:49:13.020 ,2,0,,0,114.,4.8,20.,4.8,,0,0.,4.8,43.,4.8
1979-07-23 23:49:17.820 ,2,0,,0,110.,4.8,17.,4.8,,0,0.,4.8,43.,4.8
1979-07-23 23:49:22.620 ,2,0,,0,96.,4.8,13.,4.8,,0,0.,4.8,48.,4.8
1979-07-23 23:49:27.420 ,2,0,,0,0.,4.8,0.,4.8,,0,0.,4.8,35.,4.8
1979-07-23 23:49:32.220 ,2,0,,0,0.,4.8,0.,4.8,,0,0.,4.8,44.,4.8
1979-07-23 23:49:37.020 ,3,0,,0,0.,4.8,0.,4.8,,0,0.,4.8,42.,4.8
1979-07-23 23:49:41.820 ,3,0,,0,0.,4.8,0.,4.8,,0,0.,4.8,31.,4.8
1979-07-23 23:49:46.620 ,3,0,,0,7.,4.8,1.,4.8,,0,0.,4.8,8.,4.8
1979-07-23 23:49:51.420 ,3,0,,0,22.,4.8,0.,4.8,,0,0.,4.8,10.,4.8
1979-07-23 23:49:56.220 ,3,0,,0,30.,4.8,2.,4.8,,0,0.,4.8,11.,4.8
1979-07-23 23:50:01.020 ,3,0,,0,35.,4.8,2.,4.8,,0,0.,4.8,5.,4.8
1979-07-23 23:50:05.820 ,3,0,,0,33.,4.8,1.,4.8,,0,0.,4.8,8.,4.8
1979-07-23 23:50:10.620 ,3,0,,0,31.,4.8,1.,4.8,,0,0.,4.8,6.,4.8
1979-07-23 23:50:15.420 ,3,0,,0,0.,4.8,0.,4.8,,0,0.,4.8,7.,4.8
1979-07-23 23:50:20.220 ,3,0,,0,0.,4.8,0.,4.8,,0,0.,4.8,9.,4.8
1979-07-23 23:50:25.020 ,4,0,,0,0.,4.8,0.,4.8,,0,0.,4.8,10.,4.8
1979-07-23 23:50:29.820 ,4,0,,0,0.,4.8,0.,4.8,,0,0.,4.8,9.,4.8
1979-07-23 23:50:34.620 ,4,0,,0,2.,4.8,0.,4.8,,0,0.,4.8,5.,4.8
1979-07-23 23:50:39.420 ,4,0,,0,12.,4.8,0.,4.8,,0,0.,4.8,13.,4.8
1979-07-23 23:50:44.220 ,4,0,,0,17.,4.8,4.,4.8,,0,0.,4.8,7.,4.8
1979-07-23 23:50:49.020 ,4,0,,0,15.,4.8,1.,4.8,,0,0.,4.8,6.,4.8
1979-07-23 23:50:53.820 ,4,0,,0,14.,4.8,1.,4.8,,0,0.,4.8,7.,4.8
1979-07-23 23:50:58.620 ,4,0,,0,15.,4.8,0.,4.8,,0,0.,4.8,8.,4.8
1979-07-23 23:51:03.420 ,4,0,,0,0.,4.8,0.,4.8,,0,0.,4.8,5.,4.8
1979-07-23 23:51:08.220 ,4,0,,0,0.,4.8,0.,4.8,,0,0.,4.8,4.,4.8
1979-07-23 23:51:13.020 ,5,0,,0,0.,4.8,0.,4.8,,0,0.,4.8,8.,4.8
1979-07-23 23:51:17.820 ,5,0,,0,1.,4.8,0.,4.8,,0,0.,4.8,12.,4.8
1979-07-23 23:51:22.620 ,5,0,,0,6.,4.8,0.,4.8,,0,0.,4.8,10.,4.8
1979-07-23 23:51:27.420 ,5,0,,0,30.,4.8,6.,4.8,,0,0.,4.8,12.,4.8
1979-07-23 23:51:32.220 ,5,0,,0,36.,4.8,4.,4.8,,0,0.,4.8,9.,4.8
1979-07-23 23:51:37.020 ,5,0,,0,32.,4.8,3.,4.8,,0,0.,4.8,17.,4.8
1979-07-23 23:51:41.820 ,5,0,,0,32.,4.8,3.,4.8,,0,0.,4.8,14.,4.8
1979-07-23 23:51:46.620 ,5,0,,0,23.,4.8,3.,4.8,,0,0.,4.8,14.,4.8
1979-07-23 23:51:51.420 ,5,0,,0,0.,4.8,0.,4.8,,0,0.,4.8,13.,4.8
1979-07-23 23:51:56.220 ,5,0,,0,0.,4.8,0.,4.8,,0,0.,4.8,9.,4.8
1979-07-23 23:52:01.020 ,6,0,,0,0.,4.8,0.,4.8,,0,0.,4.8,12.,4.8
1979-07-23 23:52:05.820 ,6,0,,0,0.,4.8,0.,4.8,,0,0.,4.8,20.,4.8
1979-07-23 23:52:10.620 ,6,0,,0,6.,4.8,1.,4.8,,0,0.,4.8,27.,4.8
1979-07-23 23:52:15.420 ,6,0,,0,53.,4.8,10.,4.8,,0,0.,4.8,29.,4.8
1979-07-23 23:52:20.220 ,6,0,,0,62.,4.8,9.,4.8,,0,0.,4.8,37.,4.8
1979-07-23 23:52:25.020 ,6,0,,0,68.,4.8,11.,4.8,,0,0.,4.8,30.,4.8
1979-07-23 23:52:29.820 ,6,0,,0,76.,4.8,9.,4.8,,0,0.,4.8,18.,4.8
1979-07-23 23:52:34.620 ,6,0,,0,56.,4.8,9.,4.8,,0,0.,4.8,35.,4.8
1979-07-23 23:52:39.420 ,6,0,,0,0.,4.8,0.,4.8,,0,0.,4.8,26.,4.8
1979-07-23 23:52:44.220 ,6,0,,0,0.,4.8,0.,4.8,,0,0.,4.8,29.,4.8
1979-07-23 23:52:49.020 ,7,0,,0,0.,4.8,0.,4.8,,0,0.,4.8,25.,4.8
1979-07-23 23:52:53.820 ,7,0,,0,0.,4.8,0.,4.8,,0,0.,4.8,16.,4.8
1979-07-23 23:52:58.620 ,7,0,,0,4.,4.8,0.,4.8,,0,0.,4.8,0.,4.8
1979-07-23 23:53:03.420 ,7,0,,0,9.,4.8,0.,4.8,,0,0.,4.8,0.,4.8
1979-07-23 23:53:08.220 ,7,0,,0,12.,4.8,0.,4.8,,0,0.,4.8,0.,4.8
1979-07-23 23:53:13.020 ,7,0,,0,9.,4.8,0.,4.8,,0,0.,4.8,0.,4.8
1979-07-23 23:53:17.820 ,7,0,,0,18.,4.8,0.,4.8,,0,0.,4.8,0.,4.8
1979-07-23 23:53:22.620 ,7,0,,0,12.,4.8,0.,4.8,,0,0.,4.8,0.,4.8
1979-07-23 23:53:27.420 ,7,0,,0,0.,4.8,0.,4.8,,0,0.,4.8,0.,4.8
1979-07-23 23:53:32.220 ,7,0,,0,0.,4.8,0.,4.8,,0,0.,4.8,0.,4.8
1979-07-23 23:53:37.020 ,7,0,,0,0.,4.8,0.,4.8,,0,0.,4.8,0.,4.8
1979-07-23 23:53:41.820 ,7,0,,0,0.,4.8,0.,4.8,,0,0.,4.8,1.,4.8
1979-07-23 23:53:46.620 ,7,0,,0,0.,4.8,0.,4.8,,0,0.,4.8,0.,4.8
1979-07-23 23:53:51.420 ,7,0,,0,8.,4.8,0.,4.8,,0,0.,4.8,0.,4.8
1979-07-23 23:53:56.220 ,7,0,,0,13.,4.8,0.,4.8,,0,0.,4.8,0.,4.8
1979-07-23 23:54:01.020 ,7,0,,0,10.,4.8,0.,4.8,,0,0.,4.8,0.,4.8
1979-07-23 23:54:05.820 ,7,0,,0,12.,4.8,0.,4.8,,0,0.,4.8,0.,4.8
1979-07-23 23:54:10.620 ,7,0,,0,7.,4.8,0.,4.8,,0,0.,4.8,0.,4.8
1979-07-23 23:54:15.420 ,7,0,,0,0.,4.8,0.,4.8,,0,0.,4.8,0.,4.8
1979-07-23 23:54:20.220 ,7,0,,0,0.,4.8,0.,4.8,,0,0.,4.8,0.,4.8
1979-07-23 23:54:25.020 ,6,0,,0,0.,4.8,0.,4.8,,0,0.,4.8,0.,4.8
1979-07-23 23:54:29.820 ,6,0,,0,0.,4.8,0.,4.8,,0,0.,4.8,7.,4.8
1979-07-23 23:54:34.620 ,6,0,,0,8.,4.8,0.,4.8,,0,0.,4.8,39.,4.8
1979-07-23 23:54:39.420 ,6,0,,0,50.,4.8,9.,4.8,,0,0.,4.8,25.,4.8
1979-07-23 23:54:44.220 ,6,0,,0,62.,4.8,3.,4.8,,0,0.,4.8,25.,4.8
1979-07-23 23:54:49.020 ,6,0,,0,66.,4.8,17.,4.8,,0,0.,4.8,30.,4.8
1979-07-23 23:54:53.820 ,6,0,,0,68.,4.8,12.,4.8,,0,1.,4.8,27.,4.8
1979-07-23 23:54:58.620 ,6,0,,0,57.,4.8,14.,4.8,,0,0.,4.8,35.,4.8
1979-07-23 23:55:03.420 ,6,0,,0,0.,4.8,0.,4.8,,0,0.,4.8,33.,4.8
1979-07-23 23:55:08.220 ,6,0,,0,0.,4.8,0.,4.8,,0,0.,4.8,18.,4.8
1979-07-23 23:55:13.020 ,5,0,,0,0.,4.8,0.,4.8,,0,0.,4.8,39.,4.8
1979-07-23 23:55:17.820 ,5,0,,0,0.,4.8,0.,4.8,,0,0.,4.8,21.,4.8
1979-07-23 23:55:22.620 ,5,0,,0,7.,4.8,1.,4.8,,0,0.,4.8,12.,4.8
1979-07-23 23:55:27.420 ,5,0,,0,29.,4.8,7.,4.8,,0,0.,4.8,13.,4.8
1979-07-23 23:55:32.220 ,5,0,,0,42.,4.8,8.,4.8,,0,0.,4.8,16.,4.8
1979-07-23 23:55:37.020 ,5,0,,0,33.,4.8,3.,4.8,,0,0.,4.8,18.,4.8
1979-07-23 23:55:41.820 ,5,0,,0,38.,4.8,2.,4.8,,0,0.,4.8,18.,4.8
1979-07-23 23:55:46.620 ,5,0,,0,30.,4.8,5.,4.8,,0,0.,4.8,16.,4.8
1979-07-23 23:55:51.420 ,5,0,,0,0.,4.8,0.,4.8,,0,0.,4.8,18.,4.8
1979-07-23 23:55:56.220 ,5,0,,0,0.,4.8,0.,4.8,,0,0.,4.8,14.,4.8
1979-07-23 23:56:01.020 ,4,0,,0,0.,4.8,0.,4.8,,0,0.,4.8,14.,4.8
1979-07-23 23:56:05.820 ,4,0,,0,0.,4.8,0.,4.8,,0,0.,4.8,13.,4.8
1979-07-23 23:56:10.620 ,4,0,,0,1.,4.8,0.,4.8,,0,0.,4.8,6.,4.8
1979-07-23 23:56:15.420 ,4,0,,0,24.,4.8,7.,4.8,,0,1.,4.8,12.,4.8
1979-07-23 23:56:20.220 ,4,0,,0,17.,4.8,2.,4.8,,0,0.,4.8,7.,4.8
1979-07-23 23:56:25.020 ,4,0,,0,28.,4.8,3.,4.8,,0,0.,4.8,8.,4.8
1979-07-23 23:56:29.820 ,4,0,,0,14.,4.8,1.,4.8,,0,0.,4.8,8.,4.8
1979-07-23 23:56:34.620 ,4,0,,0,14.,4.8,0.,4.8,,0,0.,4.8,11.,4.8
1979-07-23 23:56:39.420 ,4,0,,0,0.,4.8,0.,4.8,,0,0.,4.8,9.,4.8
1979-07-23 23:56:44.220 ,4,0,,0,0.,4.8,0.,4.8,,0,0.,4.8,10.,4.8
1979-07-23 23:56:49.020 ,3,0,,0,0.,4.8,0.,4.8,,0,0.,4.8,9.,4.8
1979-07-23 23:56:53.820 ,3,0,,0,0.,4.8,0.,4.8,,0,0.,4.8,3.,4.8
1979-07-23 23:56:58.620 ,3,0,,0,5.,4.8,2.,4.8,,0,0.,4.8,10.,4.8
1979-07-23 23:57:03.420 ,3,0,,0,18.,4.8,2.,4.8,,0,0.,4.8,8.,4.8
1979-07-23 23:57:08.220 ,3,0,,0,21.,4.8,5.,4.8,,0,0.,4.8,7.,4.8
1979-07-23 23:57:13.020 ,3,0,,0,19.,4.8,2.,4.8,,0,0.,4.8,9.,4.8
1979-07-23 23:57:17.820 ,3,0,,0,17.,4.8,3.,4.8,,0,0.,4.8,6.,4.8
1979-07-23 23:57:22.620 ,3,0,,0,13.,4.8,2.,4.8,,0,0.,4.8,3.,4.8
1979-07-23 23:57:27.420 ,3,0,,0,1.,4.8,0.,4.8,,0,0.,4.8,2.,4.8
1979-07-23 23:57:32.220 ,3,0,,0,0.,4.8,0.,4.8,,0,0.,4.8,12.,4.8
1979-07-23 23:57:37.020 ,2,0,,0,0.,4.8,1.,4.8,,0,0.,4.8,7.,4.8
1979-07-23 23:57:41.820 ,2,0,,0,0.,4.8,0.,4.8,,0,0.,4.8,18.,4.8
1979-07-23 23:57:46.620 ,2,0,,0,18.,4.8,3.,4.8,,0,0.,4.8,54.,4.8
1979-07-23 23:57:51.420 ,2,0,,0,104.,4.8,18.,4.8,,0,0.,4.8,37.,4.8
1979-07-23 23:57:56.220 ,2,0,,0,84.,4.8,13.,4.8,,0,0.,4.8,43.,4.8
1979-07-23 23:58:01.020 ,2,0,,0,98.,4.8,21.,4.8,,0,0.,4.8,51.,4.8
1979-07-23 23:58:05.820 ,2,0,,0,102.,4.8,18.,4.8,,0,0.,4.8,41.,4.8
1979-07-23 23:58:10.620 ,2,0,,0,74.,4.8,13.,4.8,,0,0.,4.8,57.,4.8
1979-07-23 23:58:15.420 ,2,0,,0,0.,4.8,0.,4.8,,0,0.,4.8,49.,4.8
1979-07-23 23:58:20.220 ,2,0,,0,0.,4.8,0.,4.8,,0,0.,4.8,41.,4.8
1979-07-23 23:58:25.020 ,1,0,,0,0.,4.8,0.,4.8,,0,0.,4.8,50.,4.8
1979-07-23 23:58:29.820 ,1,0,,0,0.,4.8,0.,4.8,,0,0.,4.8,38.,4.8
1979-07-23 23:58:34.620 ,1,0,,0,16.,4.8,6.,4.8,,0,0.,4.8,53.,4.8
1979-07-23 23:58:39.420 ,1,0,,0,98.,4.8,12.,4.8,,0,0.,4.8,37.,4.8
1979-07-23 23:58:44.220 ,1,0,,0,94.,4.8,16.,4.8,,0,0.,4.8,34.,4.8
1979-07-23 23:58:49.020 ,1,0,,0,100.,4.8,9.,4.8,,0,0.,4.8,43.,4.8
1979-07-23 23:58:53.820 ,1,0,,0,94.,4.8,14.,4.8,,0,0.,4.8,38.,4.8
1979-07-23 23:58:58.620 ,1,0,,0,70.,4.8,10.,4.8,,0,0.,4.8,39.,4.8
1979-07-23 23:59:03.420 ,1,0,,0,1.,4.8,0.,4.8,,0,0.,4.8,47.,4.8
1979-07-23 23:59:08.220 ,1,0,,0,0.,4.8,0.,4.8,,0,0.,4.8,41.,4.8
1979-07-23 23:59:13.020 ,0,0,,0,0.,4.8,0.,4.8,,0,0.,4.8,26.,4.8
1979-07-23 23:59:17.820 ,0,0,,0,0.,4.8,0.,4.8,,0,0.,4.8,55.,4.8
1979-07-23 23:59:22.620 ,0,0,,0,22.,4.8,5.,4.8,,0,0.,4.8,42.,4.8
1979-07-23 23:59:27.420 ,0,0,,0,116.,4.8,18.,4.8,,0,0.,4.8,38.,4.8
1979-07-23 23:59:32.220 ,0,0,,0,102.,4.8,17.,4.8,,0,0.,4.8,38.,4.8
1979-07-23 23:59:37.020 ,0,0,,0,106.,4.8,9.,4.8,,0,0.,4.8,44.,4.8
1979-07-23 23:59:41.820 ,0,0,,0,110.,4.8,15.,4.8,,0,0.,4.8,48.,4.8
1979-07-23 23:59:46.620 ,0,0,,0,80.,4.8,14.,4.8,,0,0.,4.8,39.,4.8
1979-07-23 23:59:51.420 ,0,0,,0,0.,4.8,0.,4.8,,0,0.,4.8,43.,4.8
1979-07-23 23:59:56.220 ,0,0,,0,0.,4.8,0.,4.8,,0,0.,4.8,46.,4.8
1979-07-24 00:00:01.020 ,0,0,,0,0.,4.8,0.,4.8,,0,0.,4.8,46.,4.8
1979-07-24 00:00:05.820 ,0,0,,0,0.,4.8,0.,4.8,,0,0.,4.8,38.,4.8
1979-07-24 00:00:10.620 ,0,0,,0,18.,4.8,3.,4.8,,0,0.,4.8,55.,4.8
1979-07-24 00:00:15.420 ,0,0,,0,96.,4.8,18.,4.8,,0,0.,4.8,40.,4.8
1979-07-24 00:00:20.220 ,0,0,,0,98.,4.8,12.,4.8,,0,0.,4.8,51.,4.8
